Home > Weather > Woodstock > Past weeks

Flag for USA Weather for the Past 2 Weeks in Woodstock, New York, USA

Now
48 °F

Partly sunny.


Feels Like: 46 °F
Forecast: 41 / 56 °F
Wind: 5 mph from North

Location: Dutchess County Airport

Current Time: Apr 29, 2016 at 8:22:45 AM

Latest Report: Apr 29, 2016 at 7:53 AM


Visibility: 10 mi

Pressure: 30.11 "Hg

Humidity: 48%

Dew Point: 29 °F

Location of WoodstockLocation

Historic Weather in Woodstock — Graph

°F

Woodstock Temperature Yesterday

Maximum temperature yesterday: 60 °F (at 2:53 PM)
Minimum temperature yesterday: 36 °F (at 4:53 AM)
Average temperature yesterday: 51 °F

High & Low Weather Summary for the Past Weeks

 TemperatureHumidityPressure
High80 °F (Apr 18, 5:53 PM)90% (Apr 23, 2:53 AM)30.48 "Hg (Apr 23, 2:53 AM)
Low31 °F (Apr 15, 5:53 AM)13% (Apr 20, 4:53 PM)29.66 "Hg (Apr 26, 12:53 PM)
Average56 °F47%30.07 "Hg
* Reported Apr 14 6:53 AM — Apr 29 6:53 AM, Woodstock, Weather by CustomWeather, © 2016

Note: Actual official high and low records may vary slightly from our data, if they occured in-between our weather recording intervals... More about our weather records

Advertising

Woodstock Weather History for the Previous 24 Hours

Scroll right to see more
 ConditionsComfort  
Time TempWeatherWind HumidityBarometerVisibility
6:53 AM
Fri, Apr 29
46 °FOvercast.3 mph50%30.09 "Hg10 mi
5:53 AM47 °FOvercast.3 mph56%30.07 "Hg10 mi
4:53 AM48 °FOvercast.6 mph66%30.05 "Hg10 mi
3:53 AM50 °FOvercast.3 mph68%30.04 "Hg10 mi
2:53 AM50 °FOvercast.No wind66%30.03 "Hg10 mi
1:53 AM51 °FOvercast.No wind63%30.03 "Hg10 mi
12:53 AM50 °FMostly cloudy.No wind71%30.03 "Hg10 mi
11:53 PM
Thu, Apr 28
51 °FMostly cloudy.5 mph66%30.03 "Hg10 mi
10:53 PM52 °FOvercast.3 mph64%30.03 "Hg10 mi
9:53 PM52 °FOvercast.5 mph64%30.03 "Hg10 mi
8:53 PM53 °FOvercast.3 mph64%30.02 "Hg10 mi
7:53 PM55 °FOvercast.6 mph55%30.00 "Hg10 mi
6:53 PM59 °FMostly cloudy.No wind21%29.98 "Hg10 mi
5:53 PM60 °FOvercast.No wind19%29.98 "Hg10 mi
4:53 PM60 °FScattered clouds.6 mph21%29.97 "Hg10 mi
3:53 PM60 °FPassing clouds.5 mph22%29.97 "Hg10 mi
2:53 PM60 °FSunny.No wind19%29.98 "Hg10 mi
1:53 PM59 °FSunny.5 mph22%30.01 "Hg10 mi
12:53 PM58 °FSunny.No wind24%30.02 "Hg10 mi
11:53 AM56 °FSunny.7 mph29%30.04 "Hg10 mi
10:53 AM55 °FSunny.N/A29%30.06 "Hg10 mi
9:53 AM52 °FSunny.12 mph32%30.06 "Hg10 mi
8:53 AM50 °FSunny.12 mph33%30.06 "Hg10 mi
Weather by CustomWeather, © 2016

See weather overviewHow to use our weather pages